CZ-6A DEB, 56258

Orbit data source: Space-Track

CZ-6A DEB, 56258 is space debris in SSO originally from a launch on Fri, 11 Nov 2022 UTC launched from the Taiyaun Space Center, China (TSC). Debris objects in space refer to the collection of defunct objects orbiting the Earth. Examples of debris include non-operational satellites, rocket bodies, and fragments generated from explosions, collisions, or faulty payload assembly.

Loading next visibility...
Identifier
56258, 2022-151ACA
Orbit
SSO
Country
Flag of CNCN / PRC
Related business
Manufacturer
SAST
Mission
Spacecraft
Bus & Motor
Unknown
Mass
Unknown
Launch date (UTC)
2022-11-11 (4 years ago)
Launch vehicle
Unknown
Launch site
Taiyaun Space Center, China (TSC)
Object type
Payload
Rocket body
Debris
Shape & HBR
Unknown shape, 0.1 m
Radar Cross Section
Medium (>0.1 m² and <1 m²)

Expand to show TLE details & history
Last TLE update: 19 hours ago

TLE from 19 hours ago
0 CZ-6A DEB
1 56258U 22151ACA 26207.08761241  .00008586  00000-0  16567-2 0  9997
2 56258  98.6540 254.3116 0094122 265.3100  93.7345 14.60912266180004
Epoch: 2026-07-26T02:06Z
TLE epoch observation values (Epoch: 2026-07-26T02:06:09.712Z)
Latitude
-0.00001°
Longitude
-81.01944°
Altitude
698.159 km
Speed
7.504 km/s
True Right ascension
16h 57m 14s
True Declination
0° 00' 00"
Sunlit
Object was in full shadow at epoch
Visualization orbit readout
Latitude
Unknown
Longitude
Unknown
Altitude
Unknown
Speed
Unknown
Apparent Right ascension
Unknown
Apparent Declination
Unknown
Sunlit
N/A
Visualization observer readout
Local Sidereal Time
10:40:01
Azimuth
Unknown
Elevation
Unknown
Doppler factor
Unknown
Orbital elements
Apogee altitude
753.833 km
Perigee altitude
620.829 km
Semi-major axis
7,065.468 km
Eccentricity
0.00941
Inclination
98.654°
RAAN
254.3116°
Arg. of periapsis
265.31°
True anomaly
94.80988°
Mean anomaly
93.7345°
Eccentric anomaly
94.27228°
Mean motion
3.65453 °/min
Orbital period
98.51 mins
BSTAR
0.0016567
Loading maneuver chart data...
Computing Atmospheric mass density...
Loading historical data...
Loading historical data...
Loading historical data...
Loading historical data...
Loading historical data...
Loading historical data...
Loading historical data...

Documentation

Showing up to 5 results
|